BSAT-4A

Last updated on Dec. 9, 2021, 12:02 a.m. UTC

1 42951U 17059B   21342.56338226 -.00000351  00000+0  00000+0 0  9998
2 42951   0.0837  61.6013 0001393 290.8800  37.7188  1.00271626 15231
UTC
Height (km)
Latitude
Longitude
Inclination
Orbital Period
UTC large
Height (km)
Speed (km/s)
/
Latitude / Longitude
Inclination (degrees)
Orbital Period (minutes)
Azimuth
Elevation
Range (km)
Doppler Factor
iOS Compass Heading
iOS Angle